COSMOS 2398 [-]

Last updated on Wed Jun 28 2023 00:03:31 GMT+0000 (Coordinated Universal Time)

1 27818U 03023A 23178.13717281 .00000047 00000+0 35051-4 0 9993 2 27818 82.9476 215.5461 0032874 91.5363 322.9546 13.72249449 4762
UTC large
Height (km)
Speed (km/s)
/
Latitude / Longitude
Inclination (degrees)
Orbital Period (minutes)
Azimuth
Elevation
Range (km)
Doppler Factor

Next 0 passes for location: London (51.5072 / 0.1276)

Sorry there are no passes over London.